Location: Atherton
(17.2661°S, 145.4859°E)
Time: 23:23:57
(UTC+10:00)

ARIANE 6 FM1 Upper Stage - Pass Details

Date: 29 May 2025
Orbit: 531 x 610 km, 62.0° (Epoch: 15 June)

Event Time Altitude Azimuth Distance (km) Brightness Sun altitude
Exits shadow 05:37:18 25° 247° (WSW) 1,251 3.8 -14.9°
Maximum altitude 05:37:38 25° 240° (WSW) 1,244 3.8 -14.8°
Drops below altitude 10° 05:41:20 10° 184° (S) 1,976 5.2 -13.9°
Sets 05:43:58 0° 170° (S) 2,887 6.2 -13.3°
